Regional Weather Roundup
Issued by NWS Newport/Morehead, NC

Current Version | Previous Version | Graphics & Text | Print | Product List | Glossary Off
Versions: 1 2 3 4 5 6 7 8 9 10 11 12 13 14 15 16 17 18 19 20 21 22 23 24 25 26 27 28 29 30 31 32 33 34 35 36 37 38 39 40 41 42 43 44 45 46 47 48 49 50

000
ASUS42 KMHX 230110
RWRMHX
WEATHER ROUNDUP FOR EASTERN NORTH CAROLINA
NATIONAL WEATHER SERVICE NEWPORT/MOREHEAD CITY NC
900 PM EDT TUE JUL 22 2014

NOTE: "FAIR" INDICATES FEW OR NO CLOUDS BELOW 12,000 FEET
WITH NO SIGNIFICANT WEATHER AND/OR OBSTRUCTIONS TO VISIBILITY

NCZ015>017-031-032-045>047-102-103-230200-
NORTH COAST

CITY           SKY/WX    TMP DP  RH WIND       PRES   REMARKS
EDENTON        CLOUDY    76  74  93 SE5       30.10S
ELIZABETH CITY MOCLDY    76  72  87 CALM      30.10S
KITTY HAWK     MOCLDY    77  75  94 S3        30.10R
MANTEO         NOT AVBL

$$

NCZ045>047-081-094-103-104-230200-
CENTRAL COAST

CITY           SKY/WX    TMP DP  RH WIND       PRES   REMARKS
FRISCO         MOCLDY    78  75  90 SW8       30.11F
SWANQUARTER      N/A     79 N/A N/A S12       30.06S

$$

NCZ095-097-098-100-101-230200-
SOUTHERN COAST

CITY           SKY/WX    TMP DP  RH WIND       PRES   REMARKS
BEAUFORT       CLOUDY    79  74  84 S12       30.10R
CEDAR ISLAND     N/A     77 N/A N/A S3G9      30.15S
JACKSONVILLE   CLOUDY    77  75  93 S7        30.08S
NEWPORT        NOT AVBL
PINEY ISLAND   CLOUDY    78  77  96 S5        30.10R
WILMINGTON     CLOUDY    79  75  87 S7        30.09R


$$

NCZ011>013-027>030-043-044-078>080-089-090>093-098-230200-
COASTAL PLAIN

CITY           SKY/WX    TMP DP  RH WIND       PRES   REMARKS
AHOSKIE        CLEAR     73  71  93 CALM      30.10S
CLINTON        CLOUDY    79  75  88 NE3       30.09R
ELIZABETHTOWN  MOCLDY    78  74  87 CALM      30.09R
GOLDSBORO      CLOUDY    77  76  99 NE2       30.07S
GREENVILLE     MOCLDY    77  75  94 CALM      30.11S
HAVELOCK       CLOUDY    77  74  90 S5        30.10S
KENANSVILLE    MOCLDY    76  74  94 CALM      30.09S
KINSTON        NOT AVBL
NEW BERN       LGT RAIN  79  75  89 CALM      30.10S
RICHLANDS      MOCLDY    79  73  83 CALM      30.09S
ROANOKE RAPIDS NOT AVBL
ROCKY MOUNT    MOCLDY    75  72  90 NE3       30.10R
WASHINGTON     MOCLDY    75  74  95 CALM      30.10S
WHITEVILLE     MOCLDY    77  73  87 CALM      30.09R

$$

AMZ130-135-150-152-154-156-158-170-250-252-270-ANZ085-086-088-633-658-670-230200-
MARINE OBSERVATIONS

STATION/POSITION TIME  TEMP    WIND        PRES    WAVE   SWELL
                       AIR SEA DIR/SP/G            HT/PER HT/PER
                 (UTC) (F)     (DEG/KT/KT) (MB)    (FT/S) (FT/S)
CHESAPEAKE LIGHT NOT AVBL
BUOY 44014       0100   77 78  170/  6/  8 1019.3    2/ 7   2/ 7
DUCK             0100   78 73  190/  2/  3 1018.6
2E DUCK          0000                        N/A     2/ 8
OREGON INLET     0100   78 79  190/ 11/ 12 1019.5
BUOY 44095       0100      78                N/A     3/ 5
20E OREGON INLET NOT AVBL
HATTERAS CG      0100   78 82  180/  4/  7 1019.9
DIAMOND BUOY     0100          VRB 14/ 16  1019.3    4/ 7   2/ 7
CAPE LOOKOUT     0000   79     190/ 18/ 20 1018.9
BEAUFORT LAB     0100   79 80  200/ 14/ 17 1018.8
30 SE NEW RIVER  0100   80 81  190/ 16/ 17 1019.4    4/ 6   2/ 8
5 SE WRIGHTSVILL 0000   76 81  190/ 14/ 16   N/A
BUOY 41002       0003   81 82  200/ 10/ 12 1021.7    3/ 7   3/ 7
BUOY 41004       0100   80 82  130/ 12/ 14 1018.1    3/ 8   2/ 8

$$


USA.gov is the U.S. government's official web portal to all federal, state and local government web resources and services.